Location: Lake Arresoe
(56.0000°N, 12.5000°E)
Time: 19:09:21
(UTC+01:00)

Cosmos 2058 - Pass Details

Date: 16 October 2019
Orbit: 562 x 584 km, 82.5° (Epoch: 20 November)

Event Time Altitude Azimuth Distance (km) Brightness Sun altitude
Rises 22:25:06 0° 332° (NNW) 2,824 7.4 -34.6°
Reaches altitude 10° 22:29:08 10° 294° (WNW) 1,917 6.3 -35.0°
Maximum altitude 22:30:00 11° 282° (WNW) 1,878 6.1 -35.1°
Drops below altitude 10° 22:30:53 10° 270° (W) 1,913 6.0 -35.2°
Enters shadow 22:30:55 10° 269° (W) 1,916 6.0 -35.2°
